Вернуться в каталог

STARLINK-4543

АктивенСвязьVLEO
NORAD 53429·PAYLOAD·🇺🇸 United States

Запущен Aug 10, 2022 с Cape Canaveral Space Force Station

Loading…

Ближайшие Пролёты (ближайшие 24 часа)

TLE

СвежийSource: CelesTrak SupGP

Эпоха: Sep 14, 2026, 20:35 UTC

1 53429C 22097AT  26257.85812500 -.00054531  00000+0 -15603-2 0  2577
2 53429  53.1574 320.2636 0001199  86.7845 203.7224 15.35423349    10

Отслеживайте STARLINK-4543 в реальном времени с AllMySat

Download on the App Store